Lech, Austria 16 day weather forecast

Slopes altitude range 1075 m - 2650m

Number of lifts: 84 Pistes: 276km

In some cases the lift and piste totals shown are for the ski domain (e.g. Three Valleys) rather than individual resort (e.g. Courchevel)

Overview

The 16 day weather forecast is fully updated 4 times every day.

    • Thu 21 FEB 2019
    • Thu 21
    • -4C 1C
    • Fri 22 FEB 2019
    • Fri 22
    • -3C 0C
    • Sat 23 FEB 2019
    • Sat 23
    • -6C 2C
    • Sun 24 FEB 2019
    • Sun 24
    • -3C 3C
    • Mon 25 FEB 2019
    • Mon 25
    • -2C 5C
    • Tue 26 FEB 2019
    • Tue 26
    • -2C 5C
    • Wed 27 FEB 2019
    • Wed 27
    • 1C 7C
    • Thu 28 FEB 2019
    • Thu 28
    • 0C 6C
    • Fri 01 MAR 2019
    • Fri 01
    • -2C 4C
    • Sat 02 MAR 2019
    • Sat 02
    • -1C 5C
    • Sun 03 MAR 2019
    • Sun 03
    • -5C -2C
    • Mon 04 MAR 2019
    • Mon 04
    • -3C 6C
    • Tue 05 MAR 2019
    • Tue 05
    • -1C 1C
    • Wed 06 MAR 2019
    • Wed 06
    • -4C -1C
    • Thu 07 MAR 2019
    • Thu 07
    • -9C -6C
    • Fri 08 MAR 2019
    • Fri 08
    • -13C -10C

Date:

Time Type 0°C level Temp Chill Snow Cloud Speed Gust Dir Press
18:00 1213m 1°C 1_1 0cm 44% 1mph 1mph 1030mB
21:00 1209m -5°C -5_1 0cm 33% 1mph 2mph 1032mB
0:00 1295m -5°C -5_2 0cm 51% 2mph 3mph 1032mB
3:00 1373m -4°C -4_1 0cm 91% 1mph 1mph 1032mB
6:00 1470m -4°C -4_2 0cm 95% 2mph 3mph 1032mB
9:00 1731m -3°C -3_5 0cm 91% 5mph 6mph 1031mB
12:00 1843m 0°C 0_6 0cm 94% 6mph 9mph 1030mB
15:00 1816m 0°C 0_6 1cm 93% 6mph 8mph 1030mB
18:00 1569m 0°C 0_4 1cm 90% 4mph 5mph 1033mB
21:00 972m -6°C -6_5 0cm 43% 5mph 7mph 1035mB
0:00 908m -6°C -6_7 0cm 22% 7mph 8mph 1035mB
3:00 972m -6°C -6_7 0cm 0% 7mph 8mph 1034mB
6:00 1005m -6°C -6_6 0cm 0% 6mph 7mph 1034mB
9:00 2174m -6°C -6_5 0cm 0% 5mph 5mph 1034mB
12:00 2282m 2°C 2_4 0cm 0% 4mph 6mph 1033mB
15:00 2642m 2°C 2_4 0cm 48% 4mph 5mph 1032mB
18:00 1448m 2°C 2_6 0cm 40% 6mph 7mph 1034mB
21:00 1420m -3°C -3_6 0cm 0% 6mph 7mph 1035mB
0:00 1457m -3°C -3_6 0cm 0% 6mph 7mph 1035mB
3:00 1421m -3°C -3_5 0cm 0% 5mph 6mph 1035mB
6:00 1381m -3°C -3_6 0cm 2% 6mph 7mph 1035mB
9:00 2624m -3°C -3_4 0cm 37% 4mph 5mph 1035mB
12:00 2631m 3°C 3_4 0cm 41% 4mph 6mph 1034mB
15:00 2684m 3°C 3_4 0cm 2% 4mph 5mph 1033mB
18:00 2214m 3°C 3_6 0cm 1% 6mph 7mph 1035mB
21:00 1641m -2°C -2_6 0cm 0% 6mph 7mph 1036mB
0:00 1595m -2°C -2_6 0cm 0% 6mph 7mph 1036mB
3:00 1540m -2°C -2_6 0cm 0% 6mph 7mph 1036mB
6:00 1515m -2°C -2_7 0cm 10% 7mph 8mph 1037mB
9:00 2676m -2°C -2_6 0cm 48% 6mph 7mph 1036mB
12:00 2768m 5°C 5_5 0cm 24% 5mph 7mph 1034mB
15:00 2724m 5°C 5_5 0cm 0% 5mph 5mph 1033mB
18:00 2326m 5°C 5_7 0cm 0% 7mph 8mph 1035mB
21:00 2253m -1°C -1_6 0cm 0% 6mph 7mph 1036mB
0:00 2329m -1°C -1_5 0cm 24% 5mph 6mph 1036mB
3:00 2349m -1°C -1_5 0cm 8% 5mph 6mph 1035mB
6:00 1583m -2°C -2_5 0cm 4% 5mph 6mph 1034mB
9:00 3131m -2°C -2_4 0cm 23% 4mph 5mph 1033mB
12:00 3128m 5°C 5_3 0cm 49% 3mph 4mph 1031mB
15:00 3193m 5°C 5_3 0cm 40% 3mph 4mph 1030mB
18:00 2570m 5°C 5_4 0cm 30% 4mph 5mph 1031mB
21:00 2826m 0°C 0_6 0cm 0% 6mph 7mph 1031mB
0:00 2850m 0°C 0_6 0cm 0% 6mph 7mph 1030mB
3:00 2859m 0°C 0_6 0cm 0% 6mph 7mph 1028mB
6:00 2612m 0°C 0_6 0cm 0% 6mph 7mph 1028mB
9:00 3449m 1°C 1_5 0cm 0% 5mph 6mph 1026mB
12:00 3464m 7°C 7_2 0cm 0% 2mph 3mph 1024mB
15:00 3426m 8°C 8_1 0cm 12% 1mph 1mph 1023mB
18:00 3409m 8°C 8_5 0cm 8% 5mph 6mph 1025mB
21:00 3243m 2°C 2_7 0cm 0% 7mph 8mph 1025mB
0:00 3143m 1°C 1_6 0cm 0% 6mph 7mph 1025mB
3:00 2991m 1°C 1_5 0cm 0% 5mph 6mph 1024mB
6:00 2424m 0°C 0_3 0cm 0% 3mph 4mph 1024mB
9:00 2935m 0°C 0_1 0cm 8% 1mph 1mph 1023mB
12:00 2858m 6°C 6_4 0cm 46% 4mph 6mph 1022mB
15:00 2691m 6°C 6_4 0cm 35% 4mph 5mph 1021mB
18:00 2255m 6°C 6_2 0cm 19% 2mph 3mph 1024mB
21:00 2092m -1°C -1_2 0cm 3% 2mph 3mph 1025mB
0:00 1699m -1°C -1_0 0cm 2% 0mph 1mph 1025mB
3:00 1660m -2°C -2_2 0cm 0% 2mph 2mph 1025mB
6:00 1618m -2°C -2_2 0cm 4% 2mph 2mph 1025mB
9:00 2183m -2°C -2_1 0cm 45% 1mph 1mph 1024mB
12:00 2329m 4°C 4_3 0cm 59% 3mph 3mph 1022mB
15:00 2288m 5°C 5_4 0cm 69% 4mph 4mph 1021mB
18:00 2055m 5°C 5_1 0cm 68% 1mph 1mph 1023mB
21:00 1709m -1°C -1_1 0cm 68% 1mph 1mph 1024mB
0:00 1711m -1°C -1_4 0cm 66% 4mph 5mph 1024mB
3:00 1717m -1°C -1_5 0cm 66% 5mph 6mph 1022mB
6:00 1668m -1°C -1_4 0cm 66% 4mph 5mph 1022mB
9:00 2192m -1°C -1_5 0cm 70% 5mph 6mph 1020mB
12:00 2317m 5°C 5_4 0cm 78% 4mph 6mph 1018mB
15:00 2342m 5°C 5_4 0cm 64% 4mph 6mph 1016mB
18:00 2125m 5°C 5_4 0cm 43% 4mph 5mph 1017mB
21:00 2036m -1°C -1_5 0cm 71% 5mph 6mph 1016mB
0:00 2000m -1°C -1_8 1cm 78% 8mph 11mph 1016mB
3:00 1537m -3°C -3_9 4cm 100% 9mph 13mph 1017mB
6:00 1221m -5°C -5_7 4cm 100% 7mph 11mph 1019mB
9:00 1329m -5°C -5_6 1cm 98% 6mph 7mph 1020mB
12:00 1596m -2°C -2_6 1cm 92% 6mph 8mph 1020mB
Morning 0.0572917mm 0.0625 1324m -4°C -4_5 1cm 79% 5mph 5mph 1023mB
Afternoon 0mm 0 2791m 6°C 6_11 0cm 67% 11mph 18mph 1013mB
Morning 0.3125mm 0.25 1856m 0°C 0_6 2cm 96% 6mph 10mph 1013mB
Afternoon 0.328125mm 0.0625 1937m 1°C 1_6 3cm 95% 6mph 8mph 1009mB
Morning 0.135417mm 0.1875 1735m -2°C -2_6 2cm 70% 6mph 10mph 1006mB
Afternoon 0.619792mm 1.875 1515m -1°C -1_8 15cm 87% 8mph 12mph 1009mB
Morning 0.0677083mm 0.0625 915m -6°C -6_7 1cm 83% 7mph 12mph 1015mB
Afternoon 0.0729167mm 0.0625 818m -6°C -6_11 1cm 86% 11mph 14mph 1020mB
Morning 0.208333mm 0.1875 41m -12°C -12_8 2cm 100% 8mph 12mph 1031mB
Afternoon 0.291667mm 0.0625 272m -10°C -10_10 2cm 100% 10mph 15mph 1034mB
Morning 0.0729167mm 0.0625 0m -16°C -16_7 1cm 66% 7mph 7mph 1038mB
Afternoon 0mm 0 1869m 1°C 1_4 0cm 31% 4mph 5mph 1029mB

16 day outlook at a glance

Forecast issued: 21/02/2019 18:26:44

Chat

Your comments and questions. In a resort? Let us know what it's like!


Characters left 250

For terms and conditions see Readers Comments on the Cookie and privacy policy page.